Location: Wellington
(41.3000°S, 174.7830°E)
Time: 14:34:30
(UTC+13:00)

ADEOS Rocket - Pass Details

Date: 24 January 2019
Orbit: 859 x 1306 km, 98.7° (Epoch: 15 February)

Event Time Altitude Azimuth Distance (km) Brightness Sun altitude
Exits shadow 21:18:53 - 50° (NE) 2,879 4.8 -5.7°
Reaches altitude 10° 21:19:49 10° 54° (NE) 2,550 4.5 -5.8°
Maximum altitude 21:24:38 31° 114° (ESE) 1,501 3.8 -6.6°
Drops below altitude 10° 21:29:25 10° 174° (S) 2,533 5.6 -7.3°
Sets 21:32:03 0° 183° (S) 3,492 6.5 -7.8°
